SCP
0 0 0 0 0 1 1 1 1 1 1 2 1 1 1 1 0 0 0 0 0 0 0 0 0 0 0 0 0 0 0 0
0 0 0 2 1 1 0 0 0 0 1 1 1 1 0 0 0 0 0 0 0 0 0 0 0 0 0 0 0 0 0 0
0 0 0 2 1 0 0 0 0 0 1 0 0 0 0 0 0 0 0 0 0 0 0 0 0 0 0 0 0 0 0 0
0 0 -0 -0 1 1 0 0 0 0 0 0 0 0 0 0 0 0 0 0 0 0 0 0 0 0 0 0 0 0 0 0
0 0 -0 -0 -0 0 0 0 0 0 0 0 -0 0 0 1 0 0 0 0 1 1 1 1 1 1 0 0 1 2 1 0
0 0 0 0 0 0 0 0 0 0 0 0 2 0 0 0 0 1 1 1 0 1 0 0 0 1 1 1 1 1 1 0
0 0 0 0 0 0 0 0 0 0 0 0 0 0 0 0 0 0 0 0 0 0 0 0 0 -0 -0 -0 0 0 0 0
0 0 0 0 0 0 0 0 0 0 0 0 0 0 0 0 0 0 0 0 0 0 0 0 -0 0 0 0 0 0 -0 0
0 0 0 1 1 0 0 0 0 0 0 0 0 0 0 0 0 0 0 0 0 0 0 0 0 0 0 0 0 -0 0 0
0 0 1 3 1 0 0 -0 -0 -0 0 0 0 0 0 0 0 0 0 0 0 0 0 -0 0 0 0 0 0 0 0 0
0 0 1 2 2 1 -1 -1 -0 0 0 0 1 0 1 2 0 0 0 0 0 0 0 -0 0 0 0 0 0 0 0 0
0 0 1 3 2 2 3 1 0 -1 1 1 1 1 2 1 2 2 0 0 1 0 0 0 0 0 0 0 0 0 0 0
0 0 0 1 1 2 3 4 3 2 2 2 2 2 1 1 1 0 0 0 0 0 0 0 0 0 0 0 0 0 0 0
0 0 0 1 1 2 2 1 1 0 1 1 0 1 1 1 0 0 0 1 0 0 0 0 0 0 0 0 0 0 0 0
0 0 0 -0 -0 -0 0 0 0 0 0 0 0 0 0 0 0 0 0 0 0 0 0 0 0 0 0 0 0 0 0 0
0 0 -0 0 -0 0 0 0 0 0 0 0 0 0 0 0 0 0 0 0 0 0 0 0 0 0 0 0 0 0 0 0
0 0 0 0 0 0 0 0 0 0 0 0 0 0 0 0 0 0 0 0 0 0 0 0 0 0 0 0 0 0 0 0
0 0 0 0 0 0 0 0 0 0 0 0 0 0 0 0 0 0 0 0 0 0 0 0 0 0 0 0 0 0 0 0
0 0 0 0 0 0 0 0 0 0 0 0 0 0 0 0 0 0 0 0 0 0 0 0 0 0 0 0 0 0 0 0
0 0 0 0 0 0 0 0 0 0 0 0 0 0 0 0 0 0 0 0 0 0 0 0 0 0 0 0 0 0 0 0
Wind_Speed_500mb
30 34 56 84 45 46 55 62 65 51 47 46 47 45 43 40 37 32 30 31 32 34 37 37 35 33 32 28 25 23 19 20
37 30 32 31 29 41 62 57 52 48 27 31 40 44 43 42 39 34 34 34 34 21 35 32 27 32 33 33 33 30 19 14
22 13 37 26 45 50 50 63 38 43 28 28 29 39 42 41 41 35 33 35 32 27 31 30 20 18 15 24 16 22 19 18
28 32 17 33 36 35 69 66 42 63 23 38 30 34 28 31 35 30 32 37 34 33 34 32 33 32 26 22 23 16 21 20
31 24 26 10 33 42 72 54 56 51 10 36 45 52 29 34 34 28 24 31 31 34 25 28 36 29 33 28 33 33 28 27
44 33 26 11 14 27 29 33 56 56 68 61 45 44 44 54 50 56 47 44 42 31 49 39 31 34 39 31 38 40 34 37
57 43 37 18 12 15 14 25 42 62 57 56 55 61 44 49 40 26 54 41 47 46 36 41 38 40 24 44 18 13 17 19
58 39 39 25 17 18 20 26 35 53 54 46 61 47 52 30 24 37 48 47 42 49 31 18 25 33 63 57 38 31 20 22
47 46 48 34 35 31 38 34 39 65 30 43 61 54 61 48 18 39 25 12 44 66 61 11 25 39 20 3 6 13 23 29
47 49 50 45 41 36 37 40 55 45 30 29 32 29 35 31 36 31 14 15 5 3 18 16 11 23 11 16 15 20 27 25
46 45 62 55 53 54 48 59 54 48 38 36 20 27 22 29 28 23 18 18 13 15 18 20 24 24 34 26 22 18 22 27
52 53 73 66 56 48 53 57 58 51 45 52 41 40 45 32 26 27 29 28 30 28 33 31 33 30 23 19 17 19 26 33
58 60 81 65 56 52 51 50 45 44 47 41 36 40 33 27 23 34 24 31 29 22 21 25 23 21 19 19 23 30 36 44
50 55 85 73 67 59 47 43 38 36 36 32 30 23 23 34 38 31 26 23 20 18 17 15 15 17 22 32 39 43 49 52
58 63 73 64 65 49 41 39 39 33 32 32 31 29 36 40 44 38 30 28 29 19 14 17 24 33 43 51 53 56 56 62
62 75 78 67 56 44 32 27 25 24 27 33 32 40 43 41 39 34 28 23 20 21 26 33 36 42 47 55 59 63 62 65
70 62 57 51 37 24 16 16 16 15 19 22 25 25 28 23 16 15 17 22 26 30 34 39 43 48 52 56 59 63 65 63
75 67 54 44 37 35 32 18 12 18 20 17 17 15 12 11 14 16 19 24 30 35 41 47 52 56 58 59 60 60 59 58
83 74 67 58 47 32 18 17 18 15 9 4 4 5 8 15 20 24 28 33 38 42 46 50 52 53 54 55 54 53 55 51
77 65 49 34 27 32 31 25 20 15 9 5 10 12 17 22 26 31 36 41 44 49 53 55 57 56 53 53 49 47 49 45
Wind_Direction_500mb
207 216 233 227 231 222 202 202 195 192 202 198 198 204 206 208 206 213 221 217 212 212 214 214 216 223 223 224 229 233 245 251
219 231 204 188 251 192 186 180 171 170 211 217 215 211 210 208 210 211 217 219 204 207 216 214 224 234 235 230 234 237 230 230
198 199 202 214 180 165 165 163 139 155 177 235 231 231 223 218 219 215 216 210 204 211 237 227 222 225 242 227 238 232 232 240
278 230 171 162 197 194 201 170 173 177 167 207 242 235 219 226 229 229 227 215 203 217 239 244 252 259 245 246 252 253 245 237
271 275 295 62 151 178 186 186 209 216 286 186 214 229 231 220 219 219 215 215 203 220 233 238 252 263 260 249 237 225 214 216
265 274 300 249 141 170 196 224 234 191 199 180 224 234 225 221 212 227 220 206 209 223 223 224 222 241 245 238 236 245 246 252
255 255 266 240 180 165 179 188 203 207 200 211 192 213 211 209 216 197 223 222 215 216 237 248 336 289 295 352 273 327 238 312
241 246 234 210 173 153 164 183 190 202 179 202 203 216 224 214 246 280 264 262 255 256 229 317 284 284 271 281 292 325 320 262
223 208 223 197 164 144 138 144 176 158 185 207 219 228 225 222 210 256 267 286 253 247 234 246 266 286 278 185 258 215 251 288
204 215 198 179 162 150 143 142 153 177 173 166 152 184 205 198 224 230 257 290 219 173 202 173 201 237 230 196 222 271 283 292
198 203 190 169 153 149 147 159 163 172 167 163 153 176 188 205 194 221 241 213 216 187 184 176 193 203 223 243 268 285 290 301
203 195 173 169 160 160 155 162 164 159 180 179 184 198 196 205 221 203 198 197 189 199 201 209 219 227 236 244 247 254 268 283
203 188 175 170 170 168 161 158 166 179 183 184 181 187 190 189 197 193 188 177 175 191 208 224 224 228 249 270 283 292 293 292
205 188 177 171 161 154 164 173 178 191 194 204 217 201 193 165 164 171 178 181 175 192 211 224 244 271 281 286 288 288 288 288
193 174 169 162 167 165 166 184 182 187 193 213 206 187 188 181 175 175 177 176 186 196 229 265 279 284 290 288 291 293 293 294
143 147 146 148 160 165 161 171 176 177 173 170 166 167 175 175 172 176 188 200 224 252 264 268 273 278 282 289 293 293 297 298
132 139 139 140 140 131 150 169 161 153 155 155 164 172 184 185 192 214 236 252 264 274 283 288 289 292 295 295 297 300 301 300
128 130 128 126 126 125 120 114 104 118 131 148 152 170 192 221 243 266 280 284 287 290 295 298 300 302 304 304 306 305 301 305
116 116 115 119 119 117 108 94 98 98 95 142 182 222 269 279 283 288 292 296 298 301 302 301 299 301 304 305 303 301 300 303
114 115 114 115 113 105 97 95 96 101 92 348 330 319 312 310 307 306 306 307 307 306 306 303 304 305 305 306 304 305 301 304
Wind_Speed_850mb
30 34 56 84 45 46 55 62 65 51 47 46 47 45 43 40 37 32 30 31 32 34 37 37 35 33 32 28 25 23 19 20
37 30 32 31 29 41 62 57 52 48 27 31 40 44 43 42 39 34 34 34 34 21 35 32 27 32 33 33 33 30 19 14
22 13 37 26 45 50 50 63 38 43 28 28 29 39 42 41 41 35 33 35 32 27 31 30 20 18 15 24 16 22 19 18
28 32 17 33 36 35 69 66 42 63 23 38 30 34 28 31 35 30 32 37 34 33 34 32 33 32 26 22 23 16 21 20
31 24 26 10 33 42 72 54 56 51 10 36 45 52 29 34 34 28 24 31 31 34 25 28 36 29 33 28 33 33 28 27
44 33 26 11 14 27 29 33 56 56 68 61 45 44 44 54 50 56 47 44 42 31 49 39 31 34 39 31 38 40 34 37
57 43 37 18 12 15 14 25 42 62 57 56 55 61 44 49 40 26 54 41 47 46 36 41 38 40 24 44 18 13 17 19
58 39 39 25 17 18 20 26 35 53 54 46 61 47 52 30 24 37 48 47 42 49 31 18 25 33 63 57 38 31 20 22
47 46 48 34 35 31 38 34 39 65 30 43 61 54 61 48 18 39 25 12 44 66 61 11 25 39 20 3 6 13 23 29
47 49 50 45 41 36 37 40 55 45 30 29 32 29 35 31 36 31 14 15 5 3 18 16 11 23 11 16 15 20 27 25
46 45 62 55 53 54 48 59 54 48 38 36 20 27 22 29 28 23 18 18 13 15 18 20 24 24 34 26 22 18 22 27
52 53 73 66 56 48 53 57 58 51 45 52 41 40 45 32 26 27 29 28 30 28 33 31 33 30 23 19 17 19 26 33
58 60 81 65 56 52 51 50 45 44 47 41 36 40 33 27 23 34 24 31 29 22 21 25 23 21 19 19 23 30 36 44
50 55 85 73 67 59 47 43 38 36 36 32 30 23 23 34 38 31 26 23 20 18 17 15 15 17 22 32 39 43 49 52
58 63 73 64 65 49 41 39 39 33 32 32 31 29 36 40 44 38 30 28 29 19 14 17 24 33 43 51 53 56 56 62
62 75 78 67 56 44 32 27 25 24 27 33 32 40 43 41 39 34 28 23 20 21 26 33 36 42 47 55 59 63 62 65
70 62 57 51 37 24 16 16 16 15 19 22 25 25 28 23 16 15 17 22 26 30 34 39 43 48 52 56 59 63 65 63
75 67 54 44 37 35 32 18 12 18 20 17 17 15 12 11 14 16 19 24 30 35 41 47 52 56 58 59 60 60 59 58
83 74 67 58 47 32 18 17 18 15 9 4 4 5 8 15 20 24 28 33 38 42 46 50 52 53 54 55 54 53 55 51
77 65 49 34 27 32 31 25 20 15 9 5 10 12 17 22 26 31 36 41 44 49 53 55 57 56 53 53 49 47 49 45
Wind_Direction_850mb
207 216 233 227 231 222 202 202 195 192 202 198 198 204 206 208 206 213 221 217 212 212 214 214 216 223 223 224 229 233 245 251
219 231 204 188 251 192 186 180 171 170 211 217 215 211 210 208 210 211 217 219 204 207 216 214 224 234 235 230 234 237 230 230
198 199 202 214 180 165 165 163 139 155 177 235 231 231 223 218 219 215 216 210 204 211 237 227 222 225 242 227 238 232 232 240
278 230 171 162 197 194 201 170 173 177 167 207 242 235 219 226 229 229 227 215 203 217 239 244 252 259 245 246 252 253 245 237
271 275 295 62 151 178 186 186 209 216 286 186 214 229 231 220 219 219 215 215 203 220 233 238 252 263 260 249 237 225 214 216
265 274 300 249 141 170 196 224 234 191 199 180 224 234 225 221 212 227 220 206 209 223 223 224 222 241 245 238 236 245 246 252
255 255 266 240 180 165 179 188 203 207 200 211 192 213 211 209 216 197 223 222 215 216 237 248 336 289 295 352 273 327 238 312
241 246 234 210 173 153 164 183 190 202 179 202 203 216 224 214 246 280 264 262 255 256 229 317 284 284 271 281 292 325 320 262
223 208 223 197 164 144 138 144 176 158 185 207 219 228 225 222 210 256 267 286 253 247 234 246 266 286 278 185 258 215 251 288
204 215 198 179 162 150 143 142 153 177 173 166 152 184 205 198 224 230 257 290 219 173 202 173 201 237 230 196 222 271 283 292
198 203 190 169 153 149 147 159 163 172 167 163 153 176 188 205 194 221 241 213 216 187 184 176 193 203 223 243 268 285 290 301
203 195 173 169 160 160 155 162 164 159 180 179 184 198 196 205 221 203 198 197 189 199 201 209 219 227 236 244 247 254 268 283
203 188 175 170 170 168 161 158 166 179 183 184 181 187 190 189 197 193 188 177 175 191 208 224 224 228 249 270 283 292 293 292
205 188 177 171 161 154 164 173 178 191 194 204 217 201 193 165 164 171 178 181 175 192 211 224 244 271 281 286 288 288 288 288
193 174 169 162 167 165 166 184 182 187 193 213 206 187 188 181 175 175 177 176 186 196 229 265 279 284 290 288 291 293 293 294
143 147 146 148 160 165 161 171 176 177 173 170 166 167 175 175 172 176 188 200 224 252 264 268 273 278 282 289 293 293 297 298
132 139 139 140 140 131 150 169 161 153 155 155 164 172 184 185 192 214 236 252 264 274 283 288 289 292 295 295 297 300 301 300
128 130 128 126 126 125 120 114 104 118 131 148 152 170 192 221 243 266 280 284 287 290 295 298 300 302 304 304 306 305 301 305
116 116 115 119 119 117 108 94 98 98 95 142 182 222 269 279 283 288 292 296 298 301 302 301 299 301 304 305 303 301 300 303
114 115 114 115 113 105 97 95 96 101 92 348 330 319 312 310 307 306 306 307 307 306 306 303 304 305 305 306 304 305 301 304